This is the latest recevied weather packets stored in our database for station/object JF7ELG-13. If no packets are shown the sender has not sent any weather packets the latest 10 day(s).
| Time | Temp. | Humidity | Pressure | Rain* | Wind** | Luminosity | Snow |
|---|---|---|---|---|---|---|---|
| 1777541620 | 13.33° C | 70% | 1017.4 hPa | 0 mm | - | - | - |
| 1777540730 | 13.33° C | 68% | 1017.2 hPa | 0 mm | - | - | - |
| 1777539831 | 13.89° C | 66% | 1017 hPa | 0 mm | - | - | - |
| 1777538901 | 14.44° C | 62% | 1017 hPa | 0 mm | - | - | - |
| 1777538015 | 14.44° C | 57% | 1016.9 hPa | 0 mm | - | - | - |
| 1777537115 | 15° C | 47% | 1016.9 hPa | 0 mm | - | - | - |
| 1777536212 | 15° C | 46% | 1016.9 hPa | 0 mm | - | - | - |
| 1777535301 | 15° C | 55% | 1016.9 hPa | 0 mm | - | - | - |
| 1777534418 | 15.56° C | 55% | 1017 hPa | 0 mm | - | - | - |
| 1777533532 | 15.56° C | 54% | 1016.9 hPa | 0 mm | - | - | - |
| 1777532632 | 15.56° C | 52% | 1017.1 hPa | 0 mm | - | - | - |
| 1777531702 | 15.56° C | 51% | 1017.1 hPa | 0 mm | - | - | - |
| 1777530843 | 15.56° C | 47% | 1017.1 hPa | 0 mm | - | - | - |
| 1777529933 | 15.56° C | 45% | 1017.2 hPa | 0 mm | - | - | - |
| 1777529030 | 16.11° C | 49% | 1017.3 hPa | 0 mm | - | - | - |
| 1777528122 | 16.11° C | 54% | 1017.3 hPa | 0 mm | - | - | - |
| 1777527242 | 15.56° C | 53% | 1017.6 hPa | 0 mm | - | - | - |
| 1777526331 | 15.56° C | 56% | 1017.6 hPa | 0 mm | - | - | - |
| 1777525425 | 15° C | 56% | 1017.8 hPa | 0 mm | - | - | - |
| 1777524493 | 15° C | 56% | 1017.7 hPa | 0 mm | - | - | - |
| 1777523614 | 14.44° C | 55% | 1017.7 hPa | 0 mm | - | - | - |
| 1777522725 | 14.44° C | 58% | 1018.1 hPa | 0 mm | - | - | - |
| 1777521806 | 15° C | 59% | 1018.2 hPa | 0 mm | - | - | - |
| 1777520917 | 14.44° C | 61% | 1018.3 hPa | 0 mm | - | - | - |
| 1777520041 | 13.89° C | 66% | 1018.4 hPa | 0 mm | - | - | - |
* Rain latest hour (hover to see other rain measurements)
** Current wind speed in m/s (hover to see current wind gust speed)